Location: Newark
(9.4667°S, 159.8167°E)
Time: 00:21:52
(UTC+00:00)

Courier 1B Rocket - Pass Details

Date: 24 November 2019
Orbit: 920 x 1202 km, 28.2° (Epoch: 14 December)

Event Time Altitude Azimuth Distance (km) Brightness Sun altitude
Rises 21:35:20 0° 251° (WSW) 3,619 7.6 37.8°
Reaches altitude 10° 21:38:05 10° 256° (WSW) 2,646 7.0 38.5°
Maximum altitude 21:44:09 48° 329° (NNW) 1,175 5.6 39.9°
Drops below altitude 10° 21:50:07 10° 43° (NE) 2,604 7.6 41.3°
Sets 21:52:49 0° 49° (NE) 3,557 8.2 41.9°
